• In Russia
  • List of Countries
  • For 7 days
  • Water Temperature
  • Weather Map
  • Weather Widgets
  • user-avatar
    Login

    Hourly Weather Canillo

    Today, 17 November, Sunday

    Time Temperature Precipitation Wind Pressure Humidity
    00:00 -6°C° 0.2 mm 2 mps 608 mmHg 91%
    01:00 -6°C° 0.3 mm 2 mps 608 mmHg 91%
    02:00 -6°C° 0.3 mm 2 mps 608 mmHg 91%
    03:00 -6°C° 0.3 mm 2 mps 608 mmHg 91%
    04:00 -6°C° 0.3 mm 2 mps 608 mmHg 91%
    05:00 -6°C° 0.3 mm 2 mps 608 mmHg 92%
    06:00 -6°C° 0.3 mm 2 mps 608 mmHg 92%
    07:00 -3°C° 0.1 mm 1 mps 608 mmHg 89%
    08:00 -2°C° 0.1 mm 1 mps 609 mmHg 85%
    09:00 -1°C° 0.1 mm 1 mps 609 mmHg 82%
    10:00 0°C° 0 mm 1 mps 610 mmHg 80%
    11:00 +1°C° 0 mm 1 mps 610 mmHg 78%
    12:00 +2°C° 0 mm 1 mps 610 mmHg 76%
    13:00 +2°C° 0 mm 1 mps 610 mmHg 79%
    14:00 +2°C° 0 mm 1 mps 609 mmHg 82%
    15:00 +1°C° 0 mm 1 mps 609 mmHg 86%
    16:00 0°C° 0.1 mm 1 mps 609 mmHg 89%
    17:00 -1°C° 0.1 mm 1 mps 608 mmHg 92%
    18:00 -2°C° 0.1 mm 1 mps 608 mmHg 95%
    19:00 -2°C° 0.3 mm 1 mps 608 mmHg 96%
    20:00 -3°C° 0.3 mm 0 mps 608 mmHg 96%
    21:00 -3°C° 0.3 mm 0 mps 608 mmHg 97%
    22:00 -3°C° 0.2 mm 0 mps 608 mmHg 96%
    23:00 -3°C° 0.2 mm 1 mps 608 mmHg 96%

    Tomorrow, 18 November, Monday

    Time Temperature Precipitation Wind Pressure Humidity
    00:00 -3°C° 0.2 mm 1 mps 608 mmHg 95%
    01:00 -3°C° 0.1 mm 1 mps 608 mmHg 95%
    02:00 -3°C° 0.1 mm 1 mps 608 mmHg 95%
    03:00 -3°C° 0.1 mm 1 mps 608 mmHg 95%
    04:00 -5°C° 0.2 mm 2 mps 608 mmHg 94%
    05:00 -5°C° 0.2 mm 2 mps 609 mmHg 94%
    06:00 -5°C° 0.2 mm 2 mps 609 mmHg 94%
    07:00 -4°C° 0.2 mm 2 mps 610 mmHg 92%
    08:00 -4°C° 0.2 mm 2 mps 611 mmHg 90%
    09:00 -3°C° 0.2 mm 2 mps 612 mmHg 88%
    10:00 -2°C° 0.1 mm 2 mps 612 mmHg 86%
    11:00 -2°C° 0.1 mm 2 mps 612 mmHg 84%
    12:00 +1°C° 0.1 mm 1 mps 612 mmHg 82%
    13:00 0°C° 0 mm 1 mps 612 mmHg 84%
    14:00 0°C° 0 mm 1 mps 612 mmHg 86%
    15:00 -1°C° 0 mm 1 mps 611 mmHg 88%
    16:00 -4°C° 0 mm 2 mps 611 mmHg 89%
    17:00 -6°C° 0 mm 2 mps 611 mmHg 90%
    18:00 -7°C° 0 mm 2 mps 610 mmHg 92%
    19:00 -8°C° 0 mm 2 mps 610 mmHg 90%
    20:00 -8°C° 0 mm 2 mps 611 mmHg 89%
    21:00 -8°C° 0 mm 2 mps 611 mmHg 87%
    22:00 -8°C° 0 mm 2 mps 611 mmHg 85%
    23:00 -8°C° 0 mm 2 mps 611 mmHg 82%

    Day after tomorrow, 19 November, Tuesday

    Time Temperature Precipitation Wind Pressure Humidity
    00:00 -9°C° 0 mm 2 mps 611 mmHg 79%
    01:00 -9°C° 0 mm 2 mps 611 mmHg 80%
    02:00 -8°C° 0 mm 2 mps 611 mmHg 80%
    03:00 -8°C° 0 mm 2 mps 611 mmHg 81%
    04:00 -8°C° 0 mm 2 mps 611 mmHg 81%
    05:00 -7°C° 0 mm 1 mps 611 mmHg 82%
    06:00 -7°C° 0 mm 1 mps 611 mmHg 82%
    07:00 -4°C° 0 mm 1 mps 612 mmHg 78%
    08:00 -4°C° 0 mm 0 mps 613 mmHg 73%
    09:00 -2°C° 0 mm 0 mps 614 mmHg 69%
    10:00 -1°C° 0 mm 0 mps 614 mmHg 68%
    11:00 0°C° 0 mm 0 mps 614 mmHg 66%
    12:00 +2°C° 0 mm 1 mps 615 mmHg 65%
    13:00 +2°C° 0 mm 1 mps 614 mmHg 70%
    14:00 +1°C° 0 mm 1 mps 614 mmHg 75%
    15:00 +1°C° 0 mm 1 mps 614 mmHg 79%
    16:00 -1°C° 0 mm 1 mps 613 mmHg 81%
    17:00 -3°C° 0 mm 1 mps 612 mmHg 83%
    18:00 -6°C° 0 mm 1 mps 611 mmHg 85%
    19:00 -7°C° 0 mm 2 mps 612 mmHg 83%
    20:00 -7°C° 0 mm 2 mps 612 mmHg 81%
    21:00 -7°C° 0 mm 2 mps 612 mmHg 79%
    22:00 -7°C° 0 mm 2 mps 611 mmHg 78%
    23:00 -7°C° 0 mm 2 mps 611 mmHg 77%

    20 November, Wednesday

    Time Temperature Precipitation Wind Pressure Humidity
    00:00 -7°C° 0 mm 2 mps 611 mmHg 76%
    01:00 -7°C° 0 mm 2 mps 611 mmHg 77%
    02:00 -7°C° 0 mm 2 mps 610 mmHg 77%
    03:00 -7°C° 0 mm 2 mps 610 mmHg 77%
    04:00 -7°C° 0 mm 2 mps 610 mmHg 79%
    05:00 -7°C° 0 mm 2 mps 610 mmHg 81%
    06:00 -7°C° 0 mm 2 mps 609 mmHg 82%
    07:00 -6°C° 0 mm 2 mps 610 mmHg 82%
    08:00 -4°C° 0 mm 2 mps 610 mmHg 81%
    09:00 -4°C° 0 mm 3 mps 611 mmHg 80%
    10:00 -2°C° 0 mm 3 mps 611 mmHg 80%
    11:00 -1°C° 0 mm 3 mps 611 mmHg 80%
    12:00 0°C° 0 mm 3 mps 611 mmHg 80%
    13:00 0°C° 0 mm 3 mps 610 mmHg 82%
    14:00 -1°C° 0 mm 3 mps 610 mmHg 84%
    15:00 -1°C° 0 mm 3 mps 609 mmHg 86%
    16:00 -2°C° 0.8 mm 3 mps 609 mmHg 89%
    17:00 -2°C° 0.8 mm 3 mps 609 mmHg 92%
    18:00 -4°C° 0.8 mm 3 mps 608 mmHg 95%
    19:00 -3°C° 0.6 mm 2 mps 608 mmHg 95%
    20:00 -3°C° 0.6 mm 2 mps 608 mmHg 95%
    21:00 -2°C° 0.6 mm 2 mps 608 mmHg 96%
    22:00 -2°C° 0.1 mm 3 mps 608 mmHg 95%
    23:00 -2°C° 0.1 mm 3 mps 608 mmHg 95%

    21 November, Thursday

    Time Temperature Precipitation Wind Pressure Humidity
    00:00 -2°C° 0.1 mm 3 mps 607 mmHg 95%
    01:00 -2°C° 0.3 mm 3 mps 607 mmHg 95%
    02:00 -2°C° 0.3 mm 3 mps 607 mmHg 95%
    03:00 -2°C° 0.3 mm 3 mps 606 mmHg 95%
    04:00 -2°C° 1 mm 3 mps 606 mmHg 95%
    05:00 -2°C° 1 mm 3 mps 606 mmHg 95%
    06:00 -2°C° 1 mm 3 mps 606 mmHg 95%
    07:00 -2°C° 0.6 mm 3 mps 606 mmHg 95%
    08:00 -1°C° 0.6 mm 3 mps 607 mmHg 95%
    09:00 -1°C° 0.6 mm 3 mps 607 mmHg 94%
    10:00 -1°C° 0.1 mm 3 mps 607 mmHg 93%
    11:00 0°C° 0.1 mm 3 mps 607 mmHg 91%
    12:00 0°C° 0.1 mm 3 mps 607 mmHg 90%
    13:00 0°C° 0.3 mm 3 mps 607 mmHg 91%
    14:00 0°C° 0.3 mm 3 mps 607 mmHg 92%
    15:00 0°C° 0.3 mm 3 mps 606 mmHg 93%
    16:00 -1°C° 0.3 mm 3 mps 606 mmHg 93%
    17:00 -1°C° 0.3 mm 3 mps 606 mmHg 94%
    18:00 -2°C° 0.3 mm 3 mps 606 mmHg 95%
    19:00 -2°C° 0.2 mm 3 mps 606 mmHg 95%
    20:00 -2°C° 0.2 mm 2 mps 606 mmHg 94%
    21:00 -2°C° 0.2 mm 2 mps 606 mmHg 94%
    22:00 -2°C° 0.1 mm 2 mps 606 mmHg 94%
    23:00 -2°C° 0.1 mm 2 mps 606 mmHg 94%

    22 November, Friday

    Time Temperature Precipitation Wind Pressure Humidity
    00:00 -2°C° 0.1 mm 2 mps 606 mmHg 94%
    01:00 -2°C° 0.6 mm 2 mps 605 mmHg 95%
    02:00 -2°C° 0.6 mm 2 mps 605 mmHg 95%
    03:00 -2°C° 0.6 mm 2 mps 605 mmHg 95%
    04:00 -2°C° 0.6 mm 2 mps 605 mmHg 95%
    05:00 -2°C° 0.6 mm 2 mps 605 mmHg 96%
    06:00 0°C° 0.6 mm 1 mps 605 mmHg 96%
    07:00 +1°C° 0.3 mm 1 mps 605 mmHg 96%
    08:00 +1°C° 0.3 mm 1 mps 605 mmHg 96%
    09:00 +2°C° 0.3 mm 1 mps 605 mmHg 96%
    10:00 +2°C° 0.3 mm 1 mps 605 mmHg 97%
    11:00 +1°C° 0.3 mm 1 mps 605 mmHg 97%
    12:00 +1°C° 0.3 mm 1 mps 605 mmHg 98%
    13:00 +1°C° 0.4 mm 1 mps 605 mmHg 98%
    14:00 +1°C° 0.4 mm 1 mps 605 mmHg 98%
    15:00 +1°C° 0.4 mm 1 mps 605 mmHg 98%
    16:00 +1°C° 0.4 mm 1 mps 605 mmHg 98%
    17:00 0°C° 0.4 mm 1 mps 605 mmHg 97%
    18:00 0°C° 0.4 mm 1 mps 606 mmHg 97%
    19:00 -3°C° 0.3 mm 2 mps 606 mmHg 96%
    20:00 -3°C° 0.3 mm 2 mps 606 mmHg 96%
    21:00 -4°C° 0.3 mm 2 mps 606 mmHg 96%
    22:00 -4°C° 0 mm 2 mps 606 mmHg 95%
    23:00 -5°C° 0 mm 2 mps 606 mmHg 93%
    Show more